�������l�o���
Date,Time,MP-1(��Sv/h),MP-2(��Sv/h),MP-3(��Sv/h),MP-4(��Sv/h),MP-5(��Sv/h),MP-6(��Sv/h),MP-7(��Sv/h),MP-8(��Sv/h),����,����(m/s),���J
2017/02/06,00:00,1.062,1.777,1.162,2.031,1.400,0.559,1.025,0.951,�k�k��,4.8,��
2017/02/06,00:10,1.064,1.778,1.164,2.032,1.399,0.562,1.023,0.950,�k�k��,5.1,��
2017/02/06,00:20,1.064,1.779,1.163,2.026,1.400,0.561,1.022,0.949,�k�k��,5.3,��
2017/02/06,00:30,1.062,1.780,1.163,2.030,1.401,0.558,1.024,0.950,�k�k��,5.6,��
2017/02/06,00:40,1.063,1.776,1.162,2.032,1.399,0.560,1.024,0.949,�k�k��,4.7,��
2017/02/06,00:50,1.063,1.777,1.162,2.029,1.399,0.562,1.024,0.948,�k�k��,5.2,��
2017/02/06,01:00,1.065,1.780,1.163,2.031,1.399,0.560,1.023,0.949,�k��,4.2,��
2017/02/06,01:10,1.066,1.780,1.165,2.032,1.401,0.560,1.023,0.947,�k��,4.6,��
2017/02/06,01:20,1.063,1.780,1.162,2.030,1.400,0.561,1.025,0.950,�k�k��,4.9,��
2017/02/06,01:30,1.063,1.779,1.162,2.030,1.402,0.561,1.024,0.950,�k��,4.1,��
2017/02/06,01:40,1.064,1.777,1.163,2.032,1.401,0.560,1.022,0.949,�k�k��,5.2,��
2017/02/06,01:50,1.064,1.778,1.162,2.032,1.401,0.561,1.024,0.949,�k�k��,5.6,��
2017/02/06,02:00,1.065,1.778,1.164,2.034,1.401,0.560,1.025,0.951,�k�k��,5.5,��
2017/02/06,02:10,1.066,1.778,1.164,2.031,1.404,0.561,1.023,0.950,�k�k��,4.9,��
2017/02/06,02:20,1.064,1.782,1.162,2.032,1.401,0.562,1.024,0.950,�k�k��,5.3,��
2017/02/06,02:30,1.066,1.780,1.164,2.032,1.403,0.563,1.025,0.950,�k�k��,5.9,��
2017/02/06,02:40,1.065,1.779,1.163,2.030,1.400,0.561,1.024,0.950,�k��,5.3,��
2017/02/06,02:50,1.066,1.784,1.165,2.033,1.402,0.561,1.025,0.951,�k��,5.7,�L
2017/02/06,03:00,1.065,1.780,1.164,2.032,1.402,0.561,1.024,0.951,�k��,7.0,�L
2017/02/06,03:10,1.064,1.778,1.164,2.035,1.404,0.561,1.025,0.952,�k��,6.9,��
2017/02/06,03:20,1.063,1.783,1.163,2.034,1.401,0.564,1.025,0.950,�k��,5.0,��
2017/02/06,03:30,1.066,1.777,1.164,2.035,1.401,0.562,1.026,0.952,�k�k��,4.9,��
2017/02/06,03:40,1.066,1.776,1.165,2.034,1.401,0.562,1.027,0.951,�k,6.6,��
2017/02/06,03:50,1.064,1.778,1.163,2.033,1.400,0.562,1.024,0.949,�k,7.1,��
2017/02/06,04:00,1.064,1.778,1.163,2.030,1.400,0.563,1.025,0.950,�k�k��,6.1,��
2017/02/06,04:10,1.064,1.777,1.164,2.032,1.402,0.563,1.025,0.948,�k,5.9,��
2017/02/06,04:20,1.062,1.778,1.162,2.032,1.402,0.562,1.024,0.950,�k,6.9,��
2017/02/06,04:30,1.067,1.774,1.162,2.030,1.399,0.561,1.024,0.949,�k,8.7,��
2017/02/06,04:40,1.064,1.776,1.162,2.031,1.399,0.560,1.025,0.949,�k�k��,8.2,��
2017/02/06,04:50,1.061,1.780,1.164,2.030,1.398,0.560,1.025,0.950,�k,7.5,��
2017/02/06,05:00,1.062,1.777,1.163,2.028,1.402,0.559,1.025,0.949,�k,7.3,��
2017/02/06,05:10,1.063,1.777,1.163,2.031,1.401,0.561,1.025,0.950,�k�k��,7.6,��
2017/02/06,05:20,1.064,1.779,1.162,2.031,1.399,0.559,1.026,0.950,�k,7.2,��
2017/02/06,05:30,1.064,1.779,1.164,2.031,1.397,0.561,1.025,0.951,�k,6.1,��
2017/02/06,05:40,1.063,1.775,1.160,2.030,1.400,0.559,1.026,0.949,�k�k��,5.9,��
2017/02/06,05:50,1.062,1.776,1.162,2.029,1.402,0.560,1.024,0.951,�k�k��,6.1,��
2017/02/06,06:00,1.063,1.775,1.162,2.031,1.402,0.560,1.022,0.949,�k�k��,7.0,��
2017/02/06,06:10,1.061,1.776,1.160,2.030,1.399,0.561,1.024,0.950,�k�k��,6.2,��
2017/02/06,06:20,1.061,1.774,1.161,2.032,1.400,0.561,1.024,0.949,�k�k��,5.5,��
2017/02/06,06:30,1.062,1.775,1.161,2.028,1.399,0.560,1.025,0.949,�k�k��,6.4,��
2017/02/06,06:40,1.061,1.775,1.158,2.025,1.400,0.560,1.023,0.948,�k�k��,6.4,��
2017/02/06,06:50,1.060,1.776,1.158,2.031,1.394,0.561,1.024,0.950,�k�k��,5.8,��
2017/02/06,07:00,1.062,1.777,1.159,2.030,1.402,0.559,1.024,0.950,�k�k��,5.0,��
2017/02/06,07:10,1.061,1.777,1.158,2.029,1.402,0.561,1.023,0.950,�k��,3.8,��
2017/02/06,07:20,1.065,1.776,1.160,2.028,1.401,0.561,1.022,0.949,�k�k��,3.5,��
2017/02/06,07:30,1.062,1.776,1.161,2.030,1.401,0.560,1.025,0.949,�k�k��,4.8,��
2017/02/06,07:40,1.062,1.776,1.164,2.030,1.400,0.561,1.023,0.950,�k,3.4,��
2017/02/06,07:50,1.066,1.780,1.160,2.030,1.401,0.560,1.024,0.948,���k��,6.3,��
2017/02/06,08:00,1.064,1.776,1.161,2.031,1.402,0.562,1.023,0.950,���k��,7.0,��
2017/02/06,08:10,1.064,1.775,1.164,2.029,1.400,0.561,1.024,0.950,���k��,8.5,��
2017/02/06,08:20,1.065,1.779,1.160,2.031,1.398,0.560,1.023,0.951,��,9.6,��
2017/02/06,08:30,1.066,1.774,1.164,2.031,1.400,0.562,1.026,0.950,���k��,10.7,��
2017/02/06,08:40,1.065,1.780,1.163,2.035,1.402,0.562,1.025,0.951,�k��,6.9,��
2017/02/06,08:50,1.068,1.780,1.163,2.035,1.401,0.563,1.022,0.950,�k��,7.0,��
2017/02/06,09:00,1.066,1.778,1.163,2.036,1.404,0.560,1.026,0.950,�k��,4.8,��
2017/02/06,09:10,1.066,1.781,1.164,2.033,1.398,0.564,1.025,0.950,���k��,5.3,��
2017/02/06,09:20,1.066,1.781,1.165,2.038,1.403,0.563,1.026,0.950,�k��,4.3,��
2017/02/06,09:30,1.064,1.781,1.165,2.039,1.403,0.563,1.025,0.952,�k�k��,2.2,��
2017/02/06,09:40,1.064,1.787,1.165,2.037,1.403,0.562,1.026,0.950,�k�k��,2.5,��
2017/02/06,09:50,1.068,1.785,1.163,2.036,1.407,0.564,1.025,0.952,���k��,5.3,��
2017/02/06,10:00,1.068,1.788,1.166,2.038,1.407,0.564,1.026,0.950,��,5.8,��
2017/02/06,10:10,1.068,1.787,1.164,2.040,1.408,0.565,1.024,0.951,���k��,6.5,��
2017/02/06,10:20,1.070,1.787,1.166,2.038,1.410,0.563,1.021,0.953,�k��,7.4,��
2017/02/06,10:30,1.070,1.788,1.164,2.041,1.411,0.564,1.021,0.952,�k��,4.0,��
2017/02/06,10:40,1.071,1.786,1.166,2.042,1.412,0.564,-,0.955,�k,2.6,��
2017/02/06,10:50,1.072,1.785,1.165,2.041,1.412,0.565,-,0.952,���k��,6.4,��
2017/02/06,11:00,1.071,1.790,1.164,2.043,1.412,0.563,-,0.953,���k��,9.4,��
2017/02/06,11:10,1.072,1.790,1.167,2.045,1.414,0.563,-,0.953,���k��,9.9,��
2017/02/06,11:20,1.073,1.793,1.170,2.045,1.413,0.563,-,0.952,��,8.8,��
2017/02/06,11:30,1.074,1.791,1.168,2.044,1.415,0.563,-,0.955,��,14.3,��
2017/02/06,11:40,1.075,1.790,1.169,2.041,1.417,0.563,-,0.954,��,13.3,��
2017/02/06,11:50,1.074,1.787,1.167,2.045,1.418,0.566,-,0.955,��,19.1,��
2017/02/06,12:00,1.074,1.794,1.170,2.046,1.417,0.566,-,0.955,��,14.6,��
2017/02/06,12:10,1.075,1.793,1.166,2.047,1.417,0.564,-,0.955,��,12.8,��
2017/02/06,12:20,1.076,1.792,1.172,2.049,1.417,0.567,-,0.956,��,14.3,��
2017/02/06,12:30,1.076,1.794,1.172,2.045,1.419,0.567,-,0.956,���k��,13.1,��
2017/02/06,12:40,1.075,1.794,1.173,2.049,1.418,0.565,-,0.954,���k��,13.6,��
2017/02/06,12:50,1.074,1.791,1.175,2.052,1.421,0.565,-,0.953,��,13.9,��
2017/02/06,13:00,1.077,1.796,1.176,2.050,1.419,0.564,-,0.955,���k��,11.9,��
2017/02/06,13:10,1.074,1.799,1.174,2.051,1.419,0.565,-,0.957,��,10.1,��
2017/02/06,13:20,1.074,1.797,1.175,2.051,1.420,0.566,-,0.954,��,10.0,��
2017/02/06,13:30,1.072,1.799,1.171,2.053,1.420,0.568,-,0.953,���k��,10.2,��
2017/02/06,13:40,1.075,1.796,1.172,2.052,1.423,0.567,-,0.954,��,10.4,��
2017/02/06,13:50,1.076,1.794,1.174,2.054,1.420,0.565,-,0.954,��,12.5,��
2017/02/06,14:00,1.075,1.793,1.174,2.053,1.422,0.565,-,0.953,��,8.6,��
2017/02/06,14:10,1.079,1.797,1.176,2.054,1.420,0.567,-,0.954,��,12.4,��
2017/02/06,14:20,1.082,1.795,1.175,2.051,1.422,0.566,-,0.951,��,11.9,��
2017/02/06,14:30,1.079,1.798,1.177,2.055,1.425,0.566,-,0.952,���쐼,11.9,��
2017/02/06,14:40,1.078,1.797,1.175,2.056,1.425,0.567,1.027,0.952,��,11.6,��
2017/02/06,14:50,1.077,1.796,1.177,2.054,1.421,0.567,1.370,0.951,��,15.0,��
2017/02/06,15:00,1.077,1.800,1.173,2.052,1.424,0.568,2.308,0.954,��,12.7,��
2017/02/06,15:10,1.077,1.799,1.177,2.056,1.425,0.566,-,0.954,���k��,14.3,��
2017/02/06,15:20,1.075,1.799,1.178,2.058,1.424,0.567,-,0.955,��,11.9,��
2017/02/06,15:30,1.078,1.802,1.176,2.055,1.425,0.566,-,0.955,���k��,10.9,��
2017/02/06,15:40,1.078,1.806,1.177,2.055,1.425,0.566,1.041,0.956,���k��,8.6,��
2017/02/06,15:50,1.079,1.806,1.176,2.057,1.425,0.566,1.026,0.955,���k��,10.9,��
2017/02/06,16:00,1.078,1.806,1.176,2.055,1.424,0.566,1.028,0.956,��,7.1,��
2017/02/06,16:10,1.077,1.804,1.176,2.055,1.424,0.567,1.029,0.955,���k��,5.7,��
2017/02/06,16:20,1.077,1.803,1.177,2.057,1.426,0.567,1.030,0.954,���k��,5.2,��
2017/02/06,16:30,1.077,1.803,1.179,2.054,1.422,0.566,1.031,0.954,�k��,5.2,��
2017/02/06,16:40,1.075,1.802,1.177,2.055,1.424,0.565,1.030,0.954,�k��,6.8,��
2017/02/06,16:50,1.076,1.804,1.176,2.052,1.427,0.567,1.029,0.953,���k��,5.2,��
2017/02/06,17:00,1.080,1.806,1.176,2.055,1.427,0.565,1.030,0.955,���k��,4.9,��
2017/02/06,17:10,1.076,1.804,1.176,2.053,1.426,0.565,1.029,0.955,���k��,8.9,��
2017/02/06,17:20,1.076,1.801,1.177,2.054,1.427,0.564,1.029,0.954,���k��,10.2,��
2017/02/06,17:30,1.076,1.802,1.176,2.055,1.427,0.565,1.030,0.954,���k��,8.6,��
2017/02/06,17:40,1.075,1.801,1.176,2.054,1.423,0.566,1.030,0.953,��,8.4,��
2017/02/06,17:50,1.076,1.804,1.176,2.053,1.423,0.566,1.030,0.954,��,6.8,��
2017/02/06,18:00,1.075,1.800,1.174,2.059,1.427,0.563,1.030,0.955,��,6.9,��
2017/02/06,18:10,1.076,1.801,1.175,2.055,1.426,0.563,1.029,0.956,���k��,6.7,��
2017/02/06,18:20,1.076,1.802,1.175,2.056,1.424,0.565,1.029,0.955,��,7.3,��
2017/02/06,18:30,1.077,1.801,1.174,2.056,1.426,0.564,1.029,0.953,���k��,7.4,��
2017/02/06,18:40,1.074,1.800,1.173,2.052,1.428,0.562,1.027,0.953,���k��,6.5,��
2017/02/06,18:50,1.075,1.801,1.175,2.053,1.428,0.564,1.028,0.954,��,6.3,��
2017/02/06,19:00,1.075,1.801,1.172,2.051,1.428,0.563,1.027,0.954,���k��,4.8,��
2017/02/06,19:10,1.076,1.800,1.174,2.052,1.423,0.563,1.027,0.954,���k��,6.6,��
2017/02/06,19:20,1.075,1.802,1.175,2.050,1.425,0.562,1.030,0.954,���k��,7.0,��
2017/02/06,19:30,1.075,1.801,1.174,2.051,1.424,0.564,1.029,0.954,�k��,10.9,��
2017/02/06,19:40,1.072,1.803,1.175,2.054,1.424,0.563,1.029,0.955,�k��,10.8,��
2017/02/06,19:50,1.074,1.804,1.175,2.052,1.424,0.564,1.030,0.954,�k��,10.1,��
2017/02/06,20:00,1.075,1.800,1.172,2.050,1.423,0.563,1.029,0.954,�k��,9.0,��
2017/02/06,20:10,1.076,1.802,1.174,2.050,1.424,0.564,1.028,0.953,�k��,9.4,��
2017/02/06,20:20,1.074,1.800,1.175,2.053,1.429,0.566,1.031,0.953,�k��,11.1,��
2017/02/06,20:30,1.074,1.806,1.175,2.053,1.423,0.563,1.030,0.953,�k��,11.9,��
2017/02/06,20:40,1.073,1.804,1.175,2.054,1.426,0.562,1.030,0.955,�k��,10.7,��
2017/02/06,20:50,1.072,1.802,1.176,2.053,1.427,0.564,1.028,0.954,�k��,7.3,��
2017/02/06,21:00,1.072,1.803,1.173,2.052,1.427,0.564,1.029,0.955,�k��,9.0,��
2017/02/06,21:10,1.071,1.802,1.174,2.054,1.424,0.563,1.027,0.952,�k��,9.1,��
2017/02/06,21:20,1.070,1.801,1.173,2.057,1.425,0.563,1.029,0.954,�k��,10.7,��
2017/02/06,21:30,1.071,1.802,1.175,2.056,1.426,0.562,1.029,0.955,�k��,8.2,��
2017/02/06,21:40,1.071,1.799,1.175,2.055,1.425,0.566,1.030,0.954,�k��,7.7,��
2017/02/06,21:50,1.070,1.804,1.175,2.055,1.427,0.564,1.029,0.952,�k��,7.3,��
2017/02/06,22:00,1.071,1.804,1.174,2.054,1.421,0.562,1.028,0.956,�k��,6.9,��
2017/02/06,22:10,1.069,1.801,1.174,2.054,1.425,0.562,1.029,0.954,�k��,8.7,��
2017/02/06,22:20,1.070,1.801,1.173,2.055,1.425,0.563,1.027,0.955,�k��,9.2,��
2017/02/06,22:30,1.071,1.801,1.174,2.055,1.426,0.565,1.029,0.954,�k��,8.4,��
2017/02/06,22:40,1.068,1.804,1.172,2.055,1.424,0.563,1.028,0.954,�k��,8.5,��
2017/02/06,22:50,1.072,1.801,1.173,2.053,1.423,0.562,1.029,0.954,�k��,8.6,��
2017/02/06,23:00,1.071,1.803,1.173,2.057,1.423,0.563,1.031,0.954,�k��,7.9,��
2017/02/06,23:10,1.069,1.801,1.175,2.054,1.426,0.563,1.029,0.954,�k��,8.9,��
2017/02/06,23:20,1.069,1.802,1.176,2.053,1.424,0.564,1.028,0.952,�k��,9.7,��
2017/02/06,23:30,1.070,1.801,1.174,2.054,1.426,0.564,1.030,0.953,�k��,10.7,��
2017/02/06,23:40,1.070,1.805,1.175,2.055,1.425,0.563,1.028,0.953,�k��,7.6,��
2017/02/06,23:50,1.068,1.804,1.172,2.054,1.423,0.564,1.029,0.954,�k��,9.7,��
